Última Atualização: 01:35 - 03/05/2026

Relatório Meteorológico da Estação Guaratiba
Dia Hora Direção Vento (graus) Velocidade Vento (Km/h) Temperatura (celsius) Pressão (hPa) Umidade (%)
03/05/2026 01:30:00 237 14,5 24,0 1011,6 100
03/05/2026 01:15:00 238 26,1 24,2 1011,4 100
03/05/2026 01:00:00 238 18,0 24,0 1011,4 100
03/05/2026 00:45:00 233 9,9 23,8 1011,6 100
03/05/2026 00:30:00 234 3,5 23,4 1011,4 100
03/05/2026 00:15:00 - 0,0 23,6 1011,6 100
03/05/2026 00:00:00 234 2,5 23,7 1011,9 100
02/05/2026 23:45:00 232 5,3 23,6 1012,1 100
02/05/2026 23:30:00 233 2,1 23,2 1011,9 100
02/05/2026 23:15:00 - 0,0 23,3 1011,6 100
02/05/2026 23:00:00 - 0,0 23,5 1011,4 100
02/05/2026 22:45:00 - 0,0 23,3 1011,3 100
02/05/2026 22:30:00 - 0,0 23,3 1011,1 100
02/05/2026 22:15:00 - 0,0 23,3 1011,1 100
02/05/2026 22:00:00 - 0,0 23,2 1011,1 100
02/05/2026 21:45:00 - 0,0 23,0 1011,3 100
02/05/2026 21:30:00 231 6,7 22,9 1010,6 100
02/05/2026 21:15:00 - 0,0 22,8 1010,8 100
02/05/2026 21:00:00 - 0,0 23,0 1010,8 100
02/05/2026 20:45:00 - 0,0 23,0 1010,8 100
02/05/2026 20:30:00 - 0,0 23,1 1010,6 100
02/05/2026 20:15:00 233 1,8 23,1 1010,6 100
02/05/2026 20:00:00 - 0,0 23,0 1010,9 100
02/05/2026 19:45:00 - 0,0 22,9 1010,9 100
02/05/2026 19:30:00 - 0,0 23,0 1011,1 100
02/05/2026 19:15:00 - 0,0 23,1 1010,9 100
02/05/2026 19:00:00 - 0,0 23,5 1010,9 100
02/05/2026 18:45:00 - 0,0 23,3 1011,0 100
02/05/2026 18:30:00 - 0,0 23,6 1010,9 100
02/05/2026 18:15:00 - 0,0 23,9 1010,9 100
02/05/2026 18:00:00 - 0,0 24,3 1011,1 100
02/05/2026 17:45:00 228 0,7 24,3 1010,9 100
02/05/2026 17:30:00 274 3,9 24,6 1011,1 100
02/05/2026 17:15:00 271 8,1 24,7 1011,3 100
02/05/2026 17:00:00 268 7,4 24,9 1011,0 100
02/05/2026 16:45:00 267 9,5 25,1 1011,0 100
02/05/2026 16:30:00 271 17,6 25,0 1010,4 100
02/05/2026 16:15:00 274 12,7 25,4 1010,3 100
02/05/2026 16:00:00 273 10,2 26,2 1009,8 100
02/05/2026 15:45:00 - 0,0 26,0 1009,3 100
02/05/2026 15:30:00 - 0,0 26,4 1009,2 100
02/05/2026 15:15:00 - 0,0 26,4 1009,3 100
02/05/2026 15:00:00 - 0,0 26,7 1009,3 100
02/05/2026 14:45:00 - 0,0 26,4 1009,3 100
02/05/2026 14:30:00 - 0,0 26,6 1009,3 100
02/05/2026 14:15:00 257 5,3 26,2 1009,3 100
02/05/2026 14:00:00 258 5,3 26,4 1008,9 100
02/05/2026 13:45:00 259 9,2 26,9 1009,1 100
02/05/2026 13:30:00 261 5,6 27,2 1009,3 99